Year,Month,Day,Hour,Minute,Value (Times are PST for temperature in C)
2014,04,02,00,00,3.80
2014,04,02,00,01,3.80
2014,04,02,00,02,3.80
2014,04,02,00,03,3.80
2014,04,02,00,04,3.80
2014,04,02,00,05,3.80
2014,04,02,00,06,3.70
2014,04,02,00,07,3.70
2014,04,02,00,08,3.70
2014,04,02,00,09,3.70
2014,04,02,00,10,3.70
2014,04,02,00,11,3.70
2014,04,02,00,12,3.70
2014,04,02,00,13,3.70
2014,04,02,00,14,3.70
2014,04,02,00,15,3.70
2014,04,02,00,16,3.70
2014,04,02,00,17,3.60
2014,04,02,00,18,3.60
2014,04,02,00,19,3.60
2014,04,02,00,20,3.60
2014,04,02,00,21,3.60
2014,04,02,00,22,3.60
2014,04,02,00,23,3.60
2014,04,02,00,24,3.50
2014,04,02,00,25,3.50
2014,04,02,00,26,3.50
2014,04,02,00,27,3.50
2014,04,02,00,28,3.50
2014,04,02,00,29,3.50
2014,04,02,00,30,3.40
2014,04,02,00,31,3.40
2014,04,02,00,32,3.40
2014,04,02,00,33,3.40
2014,04,02,00,34,3.40
2014,04,02,00,35,3.40
2014,04,02,00,36,3.30
2014,04,02,00,37,3.30
2014,04,02,00,38,3.30
2014,04,02,00,39,3.30
2014,04,02,00,40,3.30
2014,04,02,00,41,3.30
2014,04,02,00,42,3.30
2014,04,02,00,43,3.30
2014,04,02,00,44,3.30
2014,04,02,00,45,3.30
2014,04,02,00,46,3.30
2014,04,02,00,47,3.20
2014,04,02,00,48,3.20
2014,04,02,00,49,3.20
2014,04,02,00,50,3.20
2014,04,02,00,51,3.20
2014,04,02,00,52,3.20
2014,04,02,00,53,3.20
2014,04,02,00,54,3.10
2014,04,02,00,55,3.10
2014,04,02,00,56,3.10
2014,04,02,00,57,3.10
2014,04,02,00,58,3.10
2014,04,02,00,59,3.10
2014,04,02,01,00,3.10
2014,04,02,01,01,3.10
2014,04,02,01,02,3.10
2014,04,02,01,03,3.10
2014,04,02,01,04,3.10
2014,04,02,01,05,3.10
2014,04,02,01,06,3.10
2014,04,02,01,07,3.10
2014,04,02,01,08,3.10
2014,04,02,01,09,3.10
2014,04,02,01,10,3.10
2014,04,02,01,11,3.10
2014,04,02,01,12,3.10
2014,04,02,01,13,3.10
2014,04,02,01,14,3.10
2014,04,02,01,15,3.10
2014,04,02,01,16,3.00
2014,04,02,01,17,3.00
2014,04,02,01,18,3.00
2014,04,02,01,19,3.00
2014,04,02,01,20,3.00
2014,04,02,01,21,3.00
2014,04,02,01,22,2.90
2014,04,02,01,23,2.90
2014,04,02,01,24,2.90
2014,04,02,01,25,2.90
2014,04,02,01,26,2.90
2014,04,02,01,27,2.90
2014,04,02,01,28,2.90
2014,04,02,01,29,2.90
2014,04,02,01,30,2.90
2014,04,02,01,31,2.90
2014,04,02,01,32,2.90
2014,04,02,01,33,2.90
2014,04,02,01,34,2.90
2014,04,02,01,35,2.80
2014,04,02,01,36,2.80
2014,04,02,01,37,2.80
2014,04,02,01,38,2.80
2014,04,02,01,39,2.80
2014,04,02,01,40,2.80
2014,04,02,01,41,2.80
2014,04,02,01,42,2.80
2014,04,02,01,43,2.80
2014,04,02,01,44,2.80
2014,04,02,01,45,2.80
2014,04,02,01,46,2.70
2014,04,02,01,47,2.70
2014,04,02,01,48,2.70
2014,04,02,01,49,2.70
2014,04,02,01,50,2.70
2014,04,02,01,51,2.70
2014,04,02,01,52,2.70
2014,04,02,01,53,2.70
2014,04,02,01,54,2.70
2014,04,02,01,55,2.70
2014,04,02,01,56,2.70
2014,04,02,01,57,2.70
2014,04,02,01,58,2.60
2014,04,02,01,59,2.60
2014,04,02,02,00,2.60
2014,04,02,02,01,2.60
2014,04,02,02,02,2.60
2014,04,02,02,03,2.60
2014,04,02,02,04,2.60
2014,04,02,02,05,2.60
2014,04,02,02,06,2.60
2014,04,02,02,07,2.60
2014,04,02,02,08,2.60
2014,04,02,02,09,2.60
2014,04,02,02,10,2.60
2014,04,02,02,11,2.60
2014,04,02,02,12,2.60
2014,04,02,02,13,2.60
2014,04,02,02,14,2.60
2014,04,02,02,15,2.60
2014,04,02,02,16,2.60
2014,04,02,02,17,2.60
2014,04,02,02,18,2.60
2014,04,02,02,19,2.50
2014,04,02,02,20,2.50
2014,04,02,02,21,2.50
2014,04,02,02,22,2.50
2014,04,02,02,23,2.50
2014,04,02,02,24,2.50
2014,04,02,02,25,2.40
2014,04,02,02,26,2.40
2014,04,02,02,27,2.40
2014,04,02,02,28,2.40
2014,04,02,02,29,2.40
2014,04,02,02,30,2.30
2014,04,02,02,31,2.30
2014,04,02,02,32,2.30
2014,04,02,02,33,2.30
2014,04,02,02,34,2.30
2014,04,02,02,35,2.30
2014,04,02,02,36,2.30
2014,04,02,02,37,2.30
2014,04,02,02,38,2.30
2014,04,02,02,39,2.30
2014,04,02,02,40,2.30
2014,04,02,02,41,2.30
2014,04,02,02,42,2.30
2014,04,02,02,43,2.30
2014,04,02,02,44,2.30
2014,04,02,02,45,2.30
2014,04,02,02,46,2.30
2014,04,02,02,47,2.30
2014,04,02,02,48,2.30
2014,04,02,02,49,2.30
2014,04,02,02,50,2.30
2014,04,02,02,51,2.30
2014,04,02,02,52,2.30
2014,04,02,02,53,2.30
2014,04,02,02,54,2.30
2014,04,02,02,55,2.30
2014,04,02,02,56,2.30
2014,04,02,02,57,2.30
2014,04,02,02,58,2.20
2014,04,02,02,59,2.20
2014,04,02,03,00,2.20
2014,04,02,03,01,2.20
2014,04,02,03,02,2.20
2014,04,02,03,03,2.20
2014,04,02,03,04,2.20
2014,04,02,03,05,2.20
2014,04,02,03,06,2.20
2014,04,02,03,07,2.20
2014,04,02,03,08,2.20
2014,04,02,03,09,2.20
2014,04,02,03,10,2.10
2014,04,02,03,11,2.10
2014,04,02,03,12,2.10
2014,04,02,03,13,2.10
2014,04,02,03,14,2.10
2014,04,02,03,15,2.10
2014,04,02,03,16,2.00
2014,04,02,03,17,2.00
2014,04,02,03,18,2.00
2014,04,02,03,19,2.00
2014,04,02,03,20,2.00
2014,04,02,03,21,2.00
2014,04,02,03,22,2.10
2014,04,02,03,23,2.10
2014,04,02,03,24,2.10
2014,04,02,03,25,2.10
2014,04,02,03,26,2.10
2014,04,02,03,27,2.10
2014,04,02,03,28,2.10
2014,04,02,03,29,2.00
2014,04,02,03,30,2.00
2014,04,02,03,31,2.00
2014,04,02,03,32,2.00
2014,04,02,03,33,2.00
2014,04,02,03,34,2.00
2014,04,02,03,35,2.00
2014,04,02,03,36,2.00
2014,04,02,03,37,2.00
2014,04,02,03,38,1.90
2014,04,02,03,39,1.90
2014,04,02,03,40,1.90
2014,04,02,03,41,1.90
2014,04,02,03,42,1.90
2014,04,02,03,43,1.90
2014,04,02,03,44,1.90
2014,04,02,03,45,1.90
2014,04,02,03,46,1.90
2014,04,02,03,47,1.90
2014,04,02,03,48,1.90
2014,04,02,03,49,1.90
2014,04,02,03,50,1.90
2014,04,02,03,51,1.90
2014,04,02,03,52,1.90
2014,04,02,03,53,1.90
2014,04,02,03,54,1.90
2014,04,02,03,55,1.90
2014,04,02,03,56,1.90
2014,04,02,03,57,1.90
2014,04,02,03,58,1.90
2014,04,02,03,59,1.90
2014,04,02,04,00,1.90
2014,04,02,04,01,1.90
2014,04,02,04,02,1.90
2014,04,02,04,03,1.90
2014,04,02,04,04,1.90
2014,04,02,04,05,2.00
2014,04,02,04,06,2.00
2014,04,02,04,07,2.10
2014,04,02,04,08,2.10
2014,04,02,04,09,2.10
2014,04,02,04,10,2.10
2014,04,02,04,11,2.10
2014,04,02,04,12,2.10
2014,04,02,04,13,2.10
2014,04,02,04,14,2.10
2014,04,02,04,15,2.00
2014,04,02,04,16,2.00
2014,04,02,04,17,2.00
2014,04,02,04,18,1.90
2014,04,02,04,19,1.90
2014,04,02,04,20,1.90
2014,04,02,04,21,1.90
2014,04,02,04,22,1.90
2014,04,02,04,23,1.90
2014,04,02,04,24,1.90
2014,04,02,04,25,1.90
2014,04,02,04,26,1.90
2014,04,02,04,27,1.90
2014,04,02,04,28,1.90
2014,04,02,04,29,1.90
2014,04,02,04,30,1.90
2014,04,02,04,31,1.90
2014,04,02,04,32,1.90
2014,04,02,04,33,1.80
2014,04,02,04,34,1.80
2014,04,02,04,35,1.80
2014,04,02,04,36,1.80
2014,04,02,04,37,1.80
2014,04,02,04,38,1.80
2014,04,02,04,39,1.80
2014,04,02,04,40,1.80
2014,04,02,04,41,1.80
2014,04,02,04,42,1.80
2014,04,02,04,43,1.80
2014,04,02,04,44,1.80
2014,04,02,04,45,1.80
2014,04,02,04,46,1.80
2014,04,02,04,47,1.90
2014,04,02,04,48,1.90
2014,04,02,04,49,1.90
2014,04,02,04,50,1.90
2014,04,02,04,51,1.90
2014,04,02,04,52,1.80
2014,04,02,04,53,1.80
2014,04,02,04,54,1.80
2014,04,02,04,55,1.70
2014,04,02,04,56,1.70
2014,04,02,04,57,1.70
2014,04,02,04,58,1.60
2014,04,02,04,59,1.60
2014,04,02,05,00,1.60
2014,04,02,05,01,1.60
2014,04,02,05,02,1.60
2014,04,02,05,03,1.60
2014,04,02,05,04,1.60
2014,04,02,05,05,1.60
2014,04,02,05,06,1.60
2014,04,02,05,07,1.60
2014,04,02,05,08,1.60
2014,04,02,05,09,1.60
2014,04,02,05,10,1.50
2014,04,02,05,11,1.60
2014,04,02,05,12,1.60
2014,04,02,05,13,1.60
2014,04,02,05,14,1.60
2014,04,02,05,15,1.60
2014,04,02,05,16,1.70
2014,04,02,05,17,1.70
2014,04,02,05,18,1.70
2014,04,02,05,19,1.80
2014,04,02,05,20,1.80
2014,04,02,05,21,1.80
2014,04,02,05,22,1.70
2014,04,02,05,23,1.70
2014,04,02,05,24,1.70
2014,04,02,05,25,1.70
2014,04,02,05,26,1.70
2014,04,02,05,27,1.70
2014,04,02,05,28,1.60
2014,04,02,05,29,1.60
2014,04,02,05,30,1.60
2014,04,02,05,31,1.60
2014,04,02,05,32,1.60
2014,04,02,05,33,1.60
2014,04,02,05,34,1.60
2014,04,02,05,35,1.60
2014,04,02,05,36,1.60
2014,04,02,05,37,1.60
2014,04,02,05,38,1.50
2014,04,02,05,39,1.50
2014,04,02,05,40,1.50
2014,04,02,05,41,1.40
2014,04,02,05,42,1.40
2014,04,02,05,43,1.40
2014,04,02,05,44,1.40
2014,04,02,05,45,1.40
2014,04,02,05,46,1.40
2014,04,02,05,47,1.30
2014,04,02,05,48,1.30
2014,04,02,05,49,1.30
2014,04,02,05,50,1.30
2014,04,02,05,51,1.30
2014,04,02,05,52,1.30
2014,04,02,05,53,1.30
2014,04,02,05,54,1.40
2014,04,02,05,55,1.40
2014,04,02,05,56,1.40
2014,04,02,05,57,1.40
2014,04,02,05,58,1.50
2014,04,02,05,59,1.50
2014,04,02,06,00,1.60
2014,04,02,06,01,1.60
2014,04,02,06,02,1.60
2014,04,02,06,03,1.60
2014,04,02,06,04,1.50
2014,04,02,06,05,1.50
2014,04,02,06,06,1.50
2014,04,02,06,07,1.40
2014,04,02,06,08,1.40
2014,04,02,06,09,1.40
2014,04,02,06,10,1.30
2014,04,02,06,11,1.30
2014,04,02,06,12,1.30
2014,04,02,06,13,1.30
2014,04,02,06,14,1.30
2014,04,02,06,15,1.20
2014,04,02,06,16,1.20
2014,04,02,06,17,1.20
2014,04,02,06,18,1.20
2014,04,02,06,19,1.10
2014,04,02,06,20,1.10
2014,04,02,06,21,1.10
2014,04,02,06,22,1.10
2014,04,02,06,23,1.10
2014,04,02,06,24,1.10
2014,04,02,06,25,1.10
2014,04,02,06,26,1.10
2014,04,02,06,27,1.10
2014,04,02,06,28,1.10
2014,04,02,06,29,1.10
2014,04,02,06,30,1.10
2014,04,02,06,31,1.10
2014,04,02,06,32,1.10
2014,04,02,06,33,1.10
2014,04,02,06,34,1.10
2014,04,02,06,35,1.10
2014,04,02,06,36,1.10
2014,04,02,06,37,1.10
2014,04,02,06,38,1.00
2014,04,02,06,39,1.00
2014,04,02,06,40,0.90
2014,04,02,06,41,0.90
2014,04,02,06,42,0.90
2014,04,02,06,43,0.90
2014,04,02,06,44,0.90
2014,04,02,06,45,0.90
2014,04,02,06,46,0.90
2014,04,02,06,47,0.90
2014,04,02,06,48,0.90
2014,04,02,06,49,0.90
2014,04,02,06,50,0.80
2014,04,02,06,51,0.80
2014,04,02,06,52,0.80
2014,04,02,06,53,0.80
2014,04,02,06,54,0.80
2014,04,02,06,55,0.80
2014,04,02,06,56,0.80
2014,04,02,06,57,0.80
2014,04,02,06,58,0.80
2014,04,02,06,59,0.80
2014,04,02,07,00,0.80
2014,04,02,07,01,0.80
2014,04,02,07,02,0.70
2014,04,02,07,03,0.70
2014,04,02,07,04,0.70
2014,04,02,07,05,0.70
2014,04,02,07,06,0.80
2014,04,02,07,07,0.80
2014,04,02,07,08,0.80
2014,04,02,07,09,0.80
2014,04,02,07,10,0.80
2014,04,02,07,11,0.70
2014,04,02,07,12,0.70
2014,04,02,07,13,0.70
2014,04,02,07,14,0.70
2014,04,02,07,15,0.70
2014,04,02,07,16,0.70
2014,04,02,07,17,0.70
2014,04,02,07,18,0.80
2014,04,02,07,19,0.80
2014,04,02,07,20,0.80
2014,04,02,07,21,0.90
2014,04,02,07,22,0.90
2014,04,02,07,23,0.90
2014,04,02,07,24,0.90
2014,04,02,07,25,0.90
2014,04,02,07,26,0.90
2014,04,02,07,27,0.90
2014,04,02,07,28,0.90
2014,04,02,07,29,0.80
2014,04,02,07,30,0.80
2014,04,02,07,31,0.80
2014,04,02,07,32,0.80
2014,04,02,07,33,0.80
2014,04,02,07,34,0.80
2014,04,02,07,35,0.80
2014,04,02,07,36,0.80
2014,04,02,07,37,0.80
2014,04,02,07,38,0.80
2014,04,02,07,39,0.80
2014,04,02,07,40,0.80
2014,04,02,07,41,0.80
2014,04,02,07,42,0.80
2014,04,02,07,43,0.80
2014,04,02,07,44,0.80
2014,04,02,07,45,0.90
2014,04,02,07,46,0.90
2014,04,02,07,47,0.90
2014,04,02,07,48,0.90
2014,04,02,07,49,0.90
2014,04,02,07,50,0.90
2014,04,02,07,51,0.90
2014,04,02,07,52,0.90
2014,04,02,07,53,1.00
2014,04,02,07,54,1.00
2014,04,02,07,55,1.00
2014,04,02,07,56,1.00
2014,04,02,07,57,1.10
2014,04,02,07,58,1.10
2014,04,02,07,59,1.10
2014,04,02,08,00,1.10
2014,04,02,08,01,1.10
2014,04,02,08,02,1.20
2014,04,02,08,03,1.20
2014,04,02,08,04,1.20
2014,04,02,08,05,1.20
2014,04,02,08,06,1.20
2014,04,02,08,07,1.30
2014,04,02,08,08,1.30
2014,04,02,08,09,1.30
2014,04,02,08,10,1.30
2014,04,02,08,11,1.30
2014,04,02,08,12,1.40
2014,04,02,08,13,1.40
2014,04,02,08,14,1.40
2014,04,02,08,15,1.40
2014,04,02,08,16,1.40
2014,04,02,08,17,1.40
2014,04,02,08,18,1.50
2014,04,02,08,19,1.50
2014,04,02,08,20,1.50
2014,04,02,08,21,1.50
2014,04,02,08,22,1.50
2014,04,02,08,23,1.50
2014,04,02,08,24,1.50
2014,04,02,08,25,1.50
2014,04,02,08,26,1.50
2014,04,02,08,27,1.50
2014,04,02,08,28,1.50
2014,04,02,08,29,1.50
2014,04,02,08,30,1.50
2014,04,02,08,31,1.50
2014,04,02,08,32,1.50
2014,04,02,08,33,1.50
2014,04,02,08,34,1.50
2014,04,02,08,35,1.60
2014,04,02,08,36,1.60
2014,04,02,08,37,1.60
2014,04,02,08,38,1.60
2014,04,02,08,39,1.60
2014,04,02,08,40,1.70
2014,04,02,08,41,1.70
2014,04,02,08,42,1.70
2014,04,02,08,43,1.70
2014,04,02,08,44,1.70
2014,04,02,08,45,1.70
2014,04,02,08,46,1.70
2014,04,02,08,47,1.70
2014,04,02,08,48,1.80
2014,04,02,08,49,1.80
2014,04,02,08,50,1.80
2014,04,02,08,51,1.80
2014,04,02,08,52,1.80
2014,04,02,08,53,1.80
2014,04,02,08,54,1.80
2014,04,02,08,55,1.80
2014,04,02,08,56,1.90
2014,04,02,08,57,1.90
2014,04,02,08,58,1.90
2014,04,02,08,59,1.90
2014,04,02,09,00,1.90
2014,04,02,09,01,1.90
2014,04,02,09,02,2.00
2014,04,02,09,03,2.00
2014,04,02,09,04,2.00
2014,04,02,09,05,2.00
2014,04,02,09,06,2.00
2014,04,02,09,07,2.10
2014,04,02,09,08,2.10
2014,04,02,09,09,2.10
2014,04,02,09,10,2.10
2014,04,02,09,11,2.10
2014,04,02,09,12,2.10
2014,04,02,09,13,2.20
2014,04,02,09,14,2.20
2014,04,02,09,15,2.20
2014,04,02,09,16,2.20
2014,04,02,09,17,2.20
2014,04,02,09,18,2.20
2014,04,02,09,19,2.20
2014,04,02,09,20,2.30
2014,04,02,09,21,2.30
2014,04,02,09,22,2.30
2014,04,02,09,23,2.30
2014,04,02,09,24,2.30
2014,04,02,09,25,2.30
2014,04,02,09,26,2.40
2014,04,02,09,27,2.40
2014,04,02,09,28,2.40
2014,04,02,09,29,2.40
2014,04,02,09,30,2.40
2014,04,02,09,31,2.40
2014,04,02,09,32,2.50
2014,04,02,09,33,2.50
2014,04,02,09,34,2.50
2014,04,02,09,35,2.60
2014,04,02,09,36,2.60
2014,04,02,09,37,2.60
2014,04,02,09,38,2.60
2014,04,02,09,39,2.70
2014,04,02,09,40,2.70
2014,04,02,09,41,2.70
2014,04,02,09,42,2.70
2014,04,02,09,43,2.80
2014,04,02,09,44,2.80
2014,04,02,09,45,2.80
2014,04,02,09,46,2.80
2014,04,02,09,47,2.80
2014,04,02,09,48,2.90
2014,04,02,09,49,2.90
2014,04,02,09,50,2.90
2014,04,02,09,51,3.00
2014,04,02,09,52,3.00
2014,04,02,09,53,3.10
2014,04,02,09,54,3.10
2014,04,02,09,55,3.10
2014,04,02,09,56,3.20
2014,04,02,09,57,3.20
2014,04,02,09,58,3.30
2014,04,02,09,59,3.30
2014,04,02,10,00,3.40
2014,04,02,10,01,3.40
2014,04,02,10,02,3.40
2014,04,02,10,03,3.50
2014,04,02,10,04,3.50
2014,04,02,10,05,3.60
2014,04,02,10,06,3.60
2014,04,02,10,07,3.70
2014,04,02,10,08,3.70
2014,04,02,10,09,3.80
2014,04,02,10,10,3.80
2014,04,02,10,11,3.90
2014,04,02,10,12,3.90
2014,04,02,10,13,4.00
2014,04,02,10,14,4.10
2014,04,02,10,15,4.10
2014,04,02,10,16,4.20
2014,04,02,10,17,4.20
2014,04,02,10,18,4.30
2014,04,02,10,19,4.40
2014,04,02,10,20,4.40
2014,04,02,10,21,4.50
2014,04,02,10,22,4.60
2014,04,02,10,23,4.60
2014,04,02,10,24,4.70
2014,04,02,10,25,4.70
2014,04,02,10,26,4.80
2014,04,02,10,27,4.90
2014,04,02,10,28,4.90
2014,04,02,10,29,5.00
2014,04,02,10,30,5.10
2014,04,02,10,31,5.10
2014,04,02,10,32,5.20
2014,04,02,10,33,5.30
2014,04,02,10,34,5.30
2014,04,02,10,35,5.30
2014,04,02,10,36,5.40
2014,04,02,10,37,5.50
2014,04,02,10,38,5.50
2014,04,02,10,39,5.60
2014,04,02,10,40,5.70
2014,04,02,10,41,5.80
2014,04,02,10,42,5.90
2014,04,02,10,43,6.00
2014,04,02,10,44,6.00
2014,04,02,10,45,6.10
2014,04,02,10,46,6.20
2014,04,02,10,47,6.30
2014,04,02,10,48,6.30
2014,04,02,10,49,6.40
2014,04,02,10,50,6.50
2014,04,02,10,51,6.50
2014,04,02,10,52,6.60
2014,04,02,10,53,6.70
2014,04,02,10,54,6.70
2014,04,02,10,55,6.80
2014,04,02,10,56,6.90
2014,04,02,10,57,6.90
2014,04,02,10,58,7.00
2014,04,02,10,59,7.10
2014,04,02,11,00,7.20
2014,04,02,11,01,7.20
2014,04,02,11,02,7.30
2014,04,02,11,03,7.30
2014,04,02,11,04,7.40
2014,04,02,11,05,7.40
2014,04,02,11,06,7.50
2014,04,02,11,07,7.50
2014,04,02,11,08,7.60
2014,04,02,11,09,7.70
2014,04,02,11,10,7.70
2014,04,02,11,11,7.80
2014,04,02,11,12,7.80
2014,04,02,11,13,7.90
2014,04,02,11,14,7.90
2014,04,02,11,15,8.00
2014,04,02,11,16,8.00
2014,04,02,11,17,8.10
2014,04,02,11,18,8.10
2014,04,02,11,19,8.20
2014,04,02,11,20,8.20
2014,04,02,11,21,8.30
2014,04,02,11,22,8.30
2014,04,02,11,23,8.40
2014,04,02,11,24,8.40
2014,04,02,11,25,8.40
2014,04,02,11,26,8.50
2014,04,02,11,27,8.60
2014,04,02,11,28,8.60
2014,04,02,11,29,8.70
2014,04,02,11,30,8.70
2014,04,02,11,31,8.80
2014,04,02,11,32,8.90
2014,04,02,11,33,9.00
2014,04,02,11,34,9.10
2014,04,02,11,35,9.10
2014,04,02,11,36,9.20
2014,04,02,11,37,9.20
2014,04,02,11,38,9.20
2014,04,02,11,39,9.30
2014,04,02,11,40,9.30
2014,04,02,11,41,9.40
2014,04,02,11,42,9.40
2014,04,02,11,43,9.50
2014,04,02,11,44,9.50
2014,04,02,11,45,9.60
2014,04,02,11,46,9.60
2014,04,02,11,47,9.60
2014,04,02,11,48,9.70
2014,04,02,11,49,9.70
2014,04,02,11,50,9.80
2014,04,02,11,51,9.80
2014,04,02,11,52,9.80
2014,04,02,11,53,9.80
2014,04,02,11,54,9.90
2014,04,02,11,55,9.90
2014,04,02,11,56,10.00
2014,04,02,11,57,10.10
2014,04,02,11,58,10.10
2014,04,02,11,59,10.10
2014,04,02,12,00,10.10
2014,04,02,12,01,10.20
2014,04,02,12,02,10.20
2014,04,02,12,03,10.30
2014,04,02,12,04,10.40
2014,04,02,12,05,10.40
2014,04,02,12,06,10.50
2014,04,02,12,07,10.60
2014,04,02,12,08,10.50
2014,04,02,12,09,10.50
2014,04,02,12,10,10.40
2014,04,02,12,11,10.40
2014,04,02,12,12,10.40
2014,04,02,12,13,10.40
2014,04,02,12,14,10.40
2014,04,02,12,15,10.40
2014,04,02,12,16,10.40
2014,04,02,12,17,10.50
2014,04,02,12,18,10.60
2014,04,02,12,19,10.70
2014,04,02,12,20,10.70
2014,04,02,12,21,10.70
2014,04,02,12,22,10.80
2014,04,02,12,23,10.90
2014,04,02,12,24,10.90
2014,04,02,12,25,11.00
2014,04,02,12,26,11.00
2014,04,02,12,27,11.10
2014,04,02,12,28,11.10
2014,04,02,12,29,11.20
2014,04,02,12,30,11.20
2014,04,02,12,31,11.30
2014,04,02,12,32,11.30
2014,04,02,12,33,11.30
2014,04,02,12,34,11.30
2014,04,02,12,35,11.30
2014,04,02,12,36,11.30
2014,04,02,12,37,11.30
2014,04,02,12,38,11.30
2014,04,02,12,39,11.30
2014,04,02,12,40,11.30
2014,04,02,12,41,11.30
2014,04,02,12,42,11.30
2014,04,02,12,43,11.30
2014,04,02,12,44,11.40
2014,04,02,12,45,11.40
2014,04,02,12,46,11.40
2014,04,02,12,47,11.40
2014,04,02,12,48,11.40
2014,04,02,12,49,11.40
2014,04,02,12,50,11.40
2014,04,02,12,51,11.40
2014,04,02,12,52,11.40
2014,04,02,12,53,11.40
2014,04,02,12,54,11.50
2014,04,02,12,55,11.50
2014,04,02,12,56,11.60
2014,04,02,12,57,11.60
2014,04,02,12,58,11.60
2014,04,02,12,59,11.60
2014,04,02,13,00,11.70
2014,04,02,13,01,11.70
2014,04,02,13,02,11.70
2014,04,02,13,03,11.60
2014,04,02,13,04,11.70
2014,04,02,13,05,11.70
2014,04,02,13,06,11.80
2014,04,02,13,07,11.80
2014,04,02,13,08,11.80
2014,04,02,13,09,11.90
2014,04,02,13,10,11.90
2014,04,02,13,11,11.90
2014,04,02,13,12,11.90
2014,04,02,13,13,11.90
2014,04,02,13,14,11.90
2014,04,02,13,15,11.90
2014,04,02,13,16,11.90
2014,04,02,13,17,11.90
2014,04,02,13,18,11.90
2014,04,02,13,19,11.90
2014,04,02,13,20,11.90
2014,04,02,13,21,12.00
2014,04,02,13,22,12.10
2014,04,02,13,23,12.10
2014,04,02,13,24,12.20
2014,04,02,13,25,12.20
2014,04,02,13,26,12.20
2014,04,02,13,27,12.20
2014,04,02,13,28,12.20
2014,04,02,13,29,12.20
2014,04,02,13,30,12.20
2014,04,02,13,31,12.20
2014,04,02,13,32,12.10
2014,04,02,13,33,12.10
2014,04,02,13,34,12.00
2014,04,02,13,35,12.00
2014,04,02,13,36,11.90
2014,04,02,13,37,11.90
2014,04,02,13,38,11.90
2014,04,02,13,39,11.90
2014,04,02,13,40,11.90
2014,04,02,13,41,11.90
2014,04,02,13,42,11.80
2014,04,02,13,43,11.80
2014,04,02,13,44,11.80
2014,04,02,13,45,11.80
2014,04,02,13,46,11.80
2014,04,02,13,47,11.80
2014,04,02,13,48,11.90
2014,04,02,13,49,11.90
2014,04,02,13,50,11.90
2014,04,02,13,51,11.90
2014,04,02,13,52,12.00
2014,04,02,13,53,12.00
2014,04,02,13,54,12.00
2014,04,02,13,55,12.10
2014,04,02,13,56,12.10
2014,04,02,13,57,12.20
2014,04,02,13,58,12.20
2014,04,02,13,59,12.30
2014,04,02,14,00,12.30
2014,04,02,14,01,12.30
2014,04,02,14,02,12.30
2014,04,02,14,03,12.30
2014,04,02,14,04,12.40
2014,04,02,14,05,12.40
2014,04,02,14,06,12.40
2014,04,02,14,07,12.40
2014,04,02,14,08,12.40
2014,04,02,14,09,12.40
2014,04,02,14,10,12.40
2014,04,02,14,11,12.40
2014,04,02,14,12,12.40
2014,04,02,14,13,12.40
2014,04,02,14,14,12.50
2014,04,02,14,15,12.50
2014,04,02,14,16,12.60
2014,04,02,14,17,12.60
2014,04,02,14,18,12.60
2014,04,02,14,19,12.60
2014,04,02,14,20,12.60
2014,04,02,14,21,12.60
2014,04,02,14,22,12.60
2014,04,02,14,23,12.60
2014,04,02,14,24,12.50
2014,04,02,14,25,12.50
2014,04,02,14,26,12.50
2014,04,02,14,27,12.50
2014,04,02,14,28,12.60
2014,04,02,14,29,12.60
2014,04,02,14,30,12.60
2014,04,02,14,31,12.60
2014,04,02,14,32,12.70
2014,04,02,14,33,12.70
2014,04,02,14,34,12.60
2014,04,02,14,35,12.60
2014,04,02,14,36,12.50
2014,04,02,14,37,12.50
2014,04,02,14,38,12.40
2014,04,02,14,39,12.30
2014,04,02,14,40,12.30
2014,04,02,14,41,12.30
2014,04,02,14,42,12.30
2014,04,02,14,43,12.30
2014,04,02,14,44,12.30
2014,04,02,14,45,12.30
2014,04,02,14,46,12.40
2014,04,02,14,47,12.40
2014,04,02,14,48,12.40
2014,04,02,14,49,12.40
2014,04,02,14,50,12.40
2014,04,02,14,51,12.50
2014,04,02,14,52,12.50
2014,04,02,14,53,12.60
2014,04,02,14,54,12.60
2014,04,02,14,55,12.60
2014,04,02,14,56,12.60
2014,04,02,14,57,12.60
2014,04,02,14,58,12.70
2014,04,02,14,59,12.70
2014,04,02,15,00,12.70
2014,04,02,15,01,12.70
2014,04,02,15,02,12.70
2014,04,02,15,03,12.80
2014,04,02,15,04,12.80
2014,04,02,15,05,12.70
2014,04,02,15,06,12.70
2014,04,02,15,07,12.70
2014,04,02,15,08,12.60
2014,04,02,15,09,12.60
2014,04,02,15,10,12.60
2014,04,02,15,11,12.70
2014,04,02,15,12,12.70
2014,04,02,15,13,12.70
2014,04,02,15,14,12.70
2014,04,02,15,15,12.70
2014,04,02,15,16,12.70
2014,04,02,15,17,12.60
2014,04,02,15,18,12.60
2014,04,02,15,19,12.60
2014,04,02,15,20,12.60
2014,04,02,15,21,12.60
2014,04,02,15,22,12.60
2014,04,02,15,23,12.60
2014,04,02,15,24,12.60
2014,04,02,15,25,12.60
2014,04,02,15,26,12.60
2014,04,02,15,27,12.60
2014,04,02,15,28,12.60
2014,04,02,15,29,12.60
2014,04,02,15,30,12.60
2014,04,02,15,31,12.70
2014,04,02,15,32,12.70
2014,04,02,15,33,12.60
2014,04,02,15,34,12.60
2014,04,02,15,35,12.60
2014,04,02,15,36,12.60
2014,04,02,15,37,12.50
2014,04,02,15,38,12.50
2014,04,02,15,39,12.50
2014,04,02,15,40,12.50
2014,04,02,15,41,12.50
2014,04,02,15,42,12.50
2014,04,02,15,43,12.40
2014,04,02,15,44,12.40
2014,04,02,15,45,12.30
2014,04,02,15,46,12.30
2014,04,02,15,47,12.20
2014,04,02,15,48,12.20
2014,04,02,15,49,12.10
2014,04,02,15,50,12.10
2014,04,02,15,51,12.10
2014,04,02,15,52,12.10
2014,04,02,15,53,12.10
2014,04,02,15,54,12.10
2014,04,02,15,55,12.20
2014,04,02,15,56,12.20
2014,04,02,15,57,12.10
2014,04,02,15,58,12.10
2014,04,02,15,59,12.10
2014,04,02,16,00,12.10
2014,04,02,16,01,12.00
2014,04,02,16,02,12.00
2014,04,02,16,03,11.90
2014,04,02,16,04,11.90
2014,04,02,16,05,11.90
2014,04,02,16,06,11.90
2014,04,02,16,07,11.80
2014,04,02,16,08,11.80
2014,04,02,16,09,11.80
2014,04,02,16,10,11.80
2014,04,02,16,11,11.80
2014,04,02,16,12,11.80
2014,04,02,16,13,11.80
2014,04,02,16,14,11.80
2014,04,02,16,15,11.80
2014,04,02,16,16,11.70
2014,04,02,16,17,11.70
2014,04,02,16,18,11.70
2014,04,02,16,19,11.70
2014,04,02,16,20,11.60
2014,04,02,16,21,11.60
2014,04,02,16,22,11.60
2014,04,02,16,23,11.50
2014,04,02,16,24,11.50
2014,04,02,16,25,11.50
2014,04,02,16,26,11.40
2014,04,02,16,27,11.40
2014,04,02,16,28,11.40
2014,04,02,16,29,11.30
2014,04,02,16,30,11.30
2014,04,02,16,31,11.20
2014,04,02,16,32,11.20
2014,04,02,16,33,11.10
2014,04,02,16,34,11.10
2014,04,02,16,35,11.10
2014,04,02,16,36,11.10
2014,04,02,16,37,11.10
2014,04,02,16,38,11.00
2014,04,02,16,39,11.00
2014,04,02,16,40,11.00
2014,04,02,16,41,11.00
2014,04,02,16,42,10.90
2014,04,02,16,43,10.90
2014,04,02,16,44,10.90
2014,04,02,16,45,10.90
2014,04,02,16,46,10.90
2014,04,02,16,47,10.90
2014,04,02,16,48,10.90
2014,04,02,16,49,11.00
2014,04,02,16,50,11.00
2014,04,02,16,51,11.00
2014,04,02,16,52,11.10
2014,04,02,16,53,11.10
2014,04,02,16,54,11.10
2014,04,02,16,55,11.10
2014,04,02,16,56,11.10
2014,04,02,16,57,11.10
2014,04,02,16,58,11.00
2014,04,02,16,59,11.00
2014,04,02,17,00,11.00
2014,04,02,17,01,11.00
2014,04,02,17,02,11.00
2014,04,02,17,03,11.00
2014,04,02,17,04,10.90
2014,04,02,17,05,10.90
2014,04,02,17,06,10.90
2014,04,02,17,07,11.00
2014,04,02,17,08,11.00
2014,04,02,17,09,11.00
2014,04,02,17,10,10.90
2014,04,02,17,11,10.90
2014,04,02,17,12,10.90
2014,04,02,17,13,10.90
2014,04,02,17,14,10.90
2014,04,02,17,15,10.90
2014,04,02,17,16,10.90
2014,04,02,17,17,10.90
2014,04,02,17,18,10.90
2014,04,02,17,19,10.80
2014,04,02,17,20,10.80
2014,04,02,17,21,10.80
2014,04,02,17,22,10.70
2014,04,02,17,23,10.70
2014,04,02,17,24,10.60
2014,04,02,17,25,10.60
2014,04,02,17,26,10.50
2014,04,02,17,27,10.50
2014,04,02,17,28,10.50
2014,04,02,17,29,10.40
2014,04,02,17,30,10.40
2014,04,02,17,31,10.40
2014,04,02,17,32,10.40
2014,04,02,17,33,10.30
2014,04,02,17,34,10.30
2014,04,02,17,35,10.30
2014,04,02,17,36,10.20
2014,04,02,17,37,10.20
2014,04,02,17,38,10.20
2014,04,02,17,39,10.20
2014,04,02,17,40,10.20
2014,04,02,17,41,10.20
2014,04,02,17,42,10.20
2014,04,02,17,43,10.20
2014,04,02,17,44,10.20
2014,04,02,17,45,10.10
2014,04,02,17,46,10.10
2014,04,02,17,47,10.10
2014,04,02,17,48,10.10
2014,04,02,17,49,10.10
2014,04,02,17,50,10.10